Location: Tamazert
(32.6352°N, 5.2072°W)
Time: 04:54:30
(UTC+00:00)

Vanguard 1 Rocket - Pass Details

Date: 14 October 2022
Orbit: 650 x 4225 km, 34.3° (Epoch: 04 December)

Event Time Altitude Azimuth Distance (km) Brightness Sun altitude
Rises 12:27:58 0° 185° (S) 6,753 12.5 48.8°
Reaches altitude 10° 12:34:06 10° 170° (S) 6,301 12.5 48.6°
Maximum altitude 12:48:27 21° 128° (SE) 6,220 12.1 47.9°
Drops below altitude 10° 13:04:50 10° 89° (E) 7,402 12.0 46.8°
Sets 13:12:45 0° 76° (ENE) 8,235 12.0 46.2°
